SCP
0 0 0 0 0 0 0 0 0 0 0 0 0 0 0 0 0 0 0 0 0 0 0 0 0 0 0 0 0 0 0 0 0 0 0 0 0 0 0 0 0 0 0 0 0 0 0 0 0
0 0 0 0 0 0 0 0 0 0 0 0 0 0 0 0 0 0 0 0 0 0 0 0 0 0 0 0 0 0 0 0 0 0 0 0 0 0 0 0 0 0 0 0 0 0 0 0 0
0 0 0 0 0 0 0 0 0 0 0 0 0 0 0 0 0 0 0 0 0 0 0 0 0 0 0 0 0 0 0 0 0 0 0 0 0 0 0 0 0 0 0 0 0 0 0 0 0
0 0 0 0 0 0 0 -0 0 0 0 0 0 0 0 0 0 0 0 0 0 0 0 0 0 0 0 0 0 0 0 0 0 0 0 0 0 0 0 0 0 0 0 0 0 0 0 0 0
0 0 0 0 0 0 0 0 0 0 0 0 0 0 0 0 0 0 0 0 0 0 0 0 0 0 0 0 0 0 0 0 0 0 0 0 0 0 0 0 0 0 0 0 0 0 0 0 0
0 0 0 0 0 0 0 0 0 0 0 0 0 0 0 0 0 0 0 0 0 0 0 0 0 0 0 0 0 0 0 0 0 0 0 0 0 0 0 0 0 0 0 0 0 0 0 0 0
0 0 0 0 0 0 0 0 0 0 0 0 0 0 0 0 0 0 0 0 0 0 0 0 0 0 0 0 0 0 0 0 0 0 0 0 0 0 0 0 0 0 0 0 0 0 0 0 0
0 0 0 0 0 0 0 0 0 0 0 0 0 0 0 0 0 0 0 0 0 0 0 0 0 0 0 0 0 0 0 0 0 0 0 0 0 0 0 0 0 0 0 0 0 0 0 0 0
0 0 0 0 0 0 0 0 0 0 0 0 0 0 0 0 0 0 0 0 0 0 0 0 0 0 0 0 0 0 0 0 0 0 0 0 0 0 0 0 0 0 0 0 0 0 0 0 0
0 0 0 0 0 0 0 0 0 0 0 0 0 0 0 0 0 0 0 0 0 0 0 0 0 0 0 0 0 0 0 0 0 0 0 0 0 0 0 0 0 0 0 0 0 0 0 0 0
0 0 0 0 0 0 0 0 0 0 0 0 0 0 0 0 0 0 0 0 0 0 0 0 0 0 0 0 0 0 0 0 0 0 0 0 0 0 0 0 0 0 0 0 0 0 0 0 0
0 0 0 0 0 0 0 0 0 0 0 0 0 0 0 0 0 0 0 0 0 0 0 0 0 0 0 0 0 0 0 0 0 0 0 0 0 0 0 0 0 0 0 0 0 0 0 0 0
0 0 0 0 0 0 0 0 0 0 0 0 0 0 0 0 0 0 0 0 0 0 0 0 0 0 0 0 0 0 0 0 0 0 0 0 0 0 0 0 0 0 0 0 0 0 0 0 0
0 0 0 0 0 0 0 0 0 0 0 0 0 0 0 0 0 0 0 0 0 0 0 0 0 0 0 0 0 0 0 0 0 0 0 0 0 0 0 0 0 0 0 0 0 0 0 0 0
0 0 0 0 0 0 0 0 0 0 0 0 0 0 0 0 0 0 0 0 0 0 0 0 0 0 0 0 0 0 0 0 0 0 0 0 0 0 0 0 0 0 0 0 0 0 0 0 0
0 0 0 0 0 0 0 0 0 0 0 0 0 0 0 0 0 0 0 0 0 0 0 0 0 0 0 0 0 0 0 0 0 0 0 0 0 0 0 0 0 0 0 0 0 0 0 0 0
0 0 0 0 0 0 0 0 0 0 0 0 0 0 0 0 0 0 0 0 0 0 0 0 0 0 0 0 0 0 0 0 0 0 0 0 0 0 0 0 0 0 0 0 0 0 0 0 0
0 0 0 0 0 0 0 0 0 0 0 0 0 0 0 0 0 0 0 0 0 0 0 0 0 0 0 0 0 0 0 0 0 0 0 0 0 0 0 0 0 0 0 0 0 0 0 0 0
0 0 0 0 0 0 0 0 0 0 0 0 0 0 0 0 0 0 0 0 0 0 0 0 0 0 0 0 0 0 0 0 0 0 0 0 0 0 0 0 0 0 0 0 0 0 0 0 0
0 0 0 0 0 0 0 0 0 0 0 0 0 0 0 0 0 0 0 0 0 0 0 0 0 0 0 0 0 0 0 0 0 0 0 0 0 0 0 0 0 0 0 0 0 0 0 0 0
0 0 0 0 0 0 0 0 0 0 0 0 0 0 0 0 0 0 0 0 0 0 0 0 0 0 0 0 0 0 0 0 0 0 0 0 0 0 0 0 0 0 0 0 0 0 0 0 0
0 0 0 0 0 0 0 0 0 0 0 0 0 0 0 0 0 0 0 0 0 0 0 0 0 0 0 0 0 0 0 0 0 0 0 0 0 0 0 0 0 0 0 0 0 0 0 0 0
0 0 0 0 0 0 0 0 0 0 0 0 0 0 0 0 0 0 0 0 0 0 0 0 0 0 0 0 0 0 0 0 0 0 0 0 0 0 0 0 0 0 0 0 0 0 0 0 0
0 0 0 0 0 0 0 0 0 0 0 0 0 0 0 0 0 0 0 0 0 0 0 0 0 0 0 0 0 0 0 0 0 0 0 0 0 0 0 0 0 0 0 0 0 0 0 0 0
0 0 0 0 0 0 0 0 0 0 0 0 0 0 0 0 0 0 0 0 0 0 0 0 0 0 0 0 0 0 0 0 0 0 0 0 0 0 0 0 0 0 0 0 0 0 0 0 0
0 0 0 0 0 0 0 0 0 0 0 0 0 0 0 0 0 0 0 0 0 0 0 0 0 0 0 0 0 0 0 0 0 0 0 0 0 0 0 0 0 0 0 0 0 0 0 0 0
0 0 0 0 0 0 0 0 0 0 0 0 0 0 0 0 0 0 0 0 0 0 0 0 0 0 0 0 0 0 0 0 0 0 0 0 0 0 0 0 0 0 0 0 0 0 0 0 0
0 0 0 0 0 0 0 0 0 0 0 0 0 0 0 0 0 0 0 0 0 0 0 0 0 0 0 0 0 0 0 0 0 0 0 0 0 0 0 0 0 0 0 0 0 0 0 0 0
0 0 0 0 0 0 0 0 0 0 0 0 0 0 0 0 0 0 0 0 0 0 0 0 0 0 0 0 0 0 0 0 0 0 0 0 0 0 0 0 0 0 0 0 0 0 0 0 0
0 0 0 0 0 0 0 0 0 0 0 0 -0 -0 0 0 0 0 0 0 0 0 0 0 0 0 0 0 0 0 0 0 0 0 0 0 0 0 0 0 0 0 0 0 0 0 0 0 0
Wind_Speed
3 1 2 3 6 6 3 1 2 3 4 4 7 9 8 6 4 5 2 6 7 5 4 5 8 9 10 10 11 11 11 12 12 12 12 12 12 11 11 11 11 11 11 10 10 10 10 10 10
1 0 3 5 6 4 1 0 3 3 5 6 7 7 7 5 4 5 3 6 8 6 4 5 8 9 10 10 11 11 11 11 11 11 11 11 11 10 11 11 10 10 10 9 9 9 9 9 9
1 1 4 5 3 4 3 2 3 4 5 5 5 5 5 4 4 4 5 9 7 6 4 5 8 9 10 10 10 10 10 11 11 11 11 11 10 10 10 10 9 9 9 9 8 8 8 8 8
3 4 5 5 3 2 5 4 4 4 4 5 6 6 4 3 4 6 9 10 8 5 4 5 9 9 10 11 10 10 10 10 10 10 10 10 10 10 9 9 10 9 9 8 8 8 8 7 7
4 5 5 3 1 0 2 4 5 5 4 4 6 6 3 2 7 10 9 9 8 5 4 5 8 9 9 10 10 10 10 10 10 9 9 9 9 9 9 9 9 9 9 8 8 8 8 7 6
4 5 4 1 1 1 1 4 6 7 6 6 7 6 2 2 7 8 9 7 8 7 4 4 8 9 9 9 9 9 9 9 9 9 8 8 8 8 8 8 8 8 8 8 8 8 8 8 7
4 4 2 3 2 1 2 3 6 6 5 4 7 6 3 3 6 8 8 7 7 6 5 3 3 5 8 9 8 9 9 9 8 8 8 7 7 7 7 7 8 8 7 7 7 7 8 8 9
5 5 2 1 3 2 2 3 4 6 4 4 6 8 6 6 6 7 7 6 6 5 5 4 3 3 3 4 7 7 7 7 7 7 7 7 7 6 6 6 6 7 7 7 7 7 7 8 8
5 5 1 2 3 2 2 4 2 4 6 3 3 6 8 10 9 8 6 4 5 5 4 4 3 3 2 2 4 4 5 5 5 4 6 5 3 3 3 4 6 6 6 6 7 8 8 7 8
5 3 3 3 4 3 3 5 4 4 5 4 5 6 9 9 9 8 7 7 6 6 5 4 4 4 3 2 2 1 1 2 2 1 2 2 2 2 3 4 5 6 6 7 8 8 8 6 4
4 4 3 1 2 3 3 3 4 7 3 6 10 11 10 9 8 8 7 7 7 7 6 5 5 4 3 2 2 1 1 1 1 2 2 2 2 2 2 2 3 4 5 4 5 5 4 3 3
3 2 2 1 1 2 3 3 3 5 6 9 13 14 11 10 9 8 8 8 7 7 7 6 5 4 3 3 2 2 1 1 1 1 2 2 2 2 2 2 2 2 2 2 3 2 3 3 3
2 1 1 2 3 3 3 3 4 3 5 9 10 10 10 9 8 7 7 7 7 7 7 6 6 5 4 3 2 2 2 2 1 1 2 2 2 2 1 1 2 2 2 2 2 2 3 3 3
3 2 0 0 1 2 4 2 3 4 8 10 11 9 9 9 8 7 7 7 6 7 7 6 7 6 5 4 3 2 2 2 2 2 2 2 2 2 2 2 1 1 1 2 2 2 3 3 3
2 1 2 1 1 2 4 1 1 5 9 10 9 8 8 8 8 9 9 8 7 7 6 6 7 6 5 4 3 2 2 2 2 2 2 2 2 3 2 2 1 1 1 2 2 3 3 3 3
3 2 1 4 2 2 5 3 4 5 9 8 7 6 6 6 7 7 8 8 7 7 6 7 6 6 5 4 3 2 2 2 2 1 2 2 3 3 3 2 2 1 2 2 2 2 3 3 3
2 1 3 4 3 3 4 4 4 5 9 9 8 7 6 5 4 5 7 8 8 8 7 6 6 6 5 4 3 3 2 2 2 2 2 2 3 3 3 2 1 2 2 2 2 2 2 2 2
4 3 3 4 3 3 3 4 4 5 8 9 8 7 7 7 6 6 7 7 8 8 7 7 6 6 5 4 3 2 2 2 2 2 2 2 2 3 3 2 2 2 2 2 2 2 2 2 1
4 3 4 5 4 4 5 5 6 5 5 6 7 7 8 8 6 6 7 7 7 6 7 7 6 5 5 3 3 2 1 1 1 1 2 3 3 3 3 2 2 2 2 2 2 2 3 2 2
3 2 2 3 2 3 3 5 5 5 7 9 10 10 10 8 5 5 6 7 7 7 7 7 7 6 5 4 3 3 2 1 1 1 1 2 3 3 3 3 2 2 2 2 2 2 2 1 1
2 3 3 3 2 1 1 4 4 4 4 6 8 9 10 11 11 9 7 7 7 7 7 7 7 6 5 5 3 3 3 2 1 1 0 0 2 2 3 3 3 2 2 2 1 2 3 1 1
3 3 3 3 0 3 1 3 6 4 3 5 7 7 9 9 10 9 9 8 8 8 7 7 6 6 6 6 6 6 4 3 3 2 1 1 1 2 3 3 3 3 2 2 1 2 2 2 1
4 3 2 2 2 1 1 1 7 1 4 6 7 9 9 9 10 10 10 10 9 8 7 6 6 6 6 6 6 6 4 3 2 1 2 1 0 1 2 3 3 3 2 2 2 2 2 2 2
0 3 4 4 3 2 4 3 6 4 6 6 6 7 8 8 9 9 9 7 6 6 6 6 6 5 5 6 6 6 6 5 4 3 2 1 1 0 1 2 2 2 2 2 2 2 2 1 1
5 5 4 4 3 4 2 3 6 6 4 4 5 6 7 7 8 7 7 7 7 7 6 6 7 6 5 6 6 6 6 7 6 5 4 3 2 1 2 2 2 2 2 2 2 2 1 2 2
2 7 5 3 3 4 2 3 5 5 2 1 1 2 4 5 6 7 8 8 8 8 7 7 7 6 6 6 6 5 6 5 4 5 4 4 3 3 3 3 3 3 3 2 2 2 2 1 2
2 3 5 5 1 1 3 3 5 3 4 3 2 3 3 4 5 5 5 6 6 7 7 8 7 6 6 6 6 5 6 5 5 5 4 3 3 3 3 3 3 3 3 3 3 2 2 2 1
4 4 4 3 1 2 3 3 3 3 2 1 1 1 2 2 3 4 4 5 5 5 5 5 6 7 5 5 5 5 5 6 5 5 4 4 4 3 4 4 3 3 3 2 2 1 1 2 1
1 1 3 3 4 4 2 5 3 3 2 2 2 2 2 3 3 4 4 4 4 3 3 4 5 5 4 5 5 5 5 5 5 5 5 5 4 4 4 4 4 3 3 3 3 2 2 2 1
3 3 4 3 2 3 3 6 3 0 1 1 1 1 2 2 2 3 3 3 3 3 3 3 4 4 4 5 4 5 5 5 5 5 5 4 4 4 4 4 4 4 3 3 3 3 3 3 2
Wind_Direction
301 351 93 61 54 55 64 343 119 70 62 59 75 82 84 68 90 132 185 135 131 130 118 102 97 94 92 91 89 87 86 85 84 82 80 79 77 77 76 77 80 82 80 78 76 75 75 74 74
333 43 65 58 77 78 44 292 91 106 132 121 81 81 80 74 84 112 126 140 130 125 120 109 101 98 96 94 92 90 89 89 88 86 84 82 80 79 78 76 78 80 80 78 75 73 72 73 73
308 95 77 67 89 143 160 188 142 122 112 102 82 63 82 108 115 130 148 142 127 118 118 120 108 104 101 99 98 95 93 92 90 88 88 86 84 81 79 78 79 78 78 77 77 75 72 69 68
58 46 55 71 84 178 166 179 155 117 76 70 96 69 62 100 134 136 137 131 122 117 116 125 115 108 104 102 101 98 95 94 93 91 90 89 88 85 82 79 78 77 76 75 75 72 69 66 64
64 71 60 58 90 146 148 160 140 109 89 85 94 90 61 46 112 125 134 132 129 128 126 127 122 116 110 108 106 103 99 96 93 92 91 89 89 88 84 80 78 77 75 73 71 68 63 55 59
57 67 80 90 121 127 142 135 110 99 106 108 101 106 110 124 124 136 137 135 135 136 133 127 125 122 116 113 110 106 102 98 93 90 92 89 88 87 85 81 79 77 74 71 69 65 62 54 56
101 91 123 152 127 116 153 127 114 119 114 127 124 108 131 163 152 144 138 134 132 134 130 120 122 119 120 119 115 108 103 98 93 88 87 89 86 85 85 84 82 79 75 70 65 61 59 53 52
122 99 82 124 140 173 159 110 119 123 118 125 119 134 165 191 164 140 134 130 132 133 135 134 127 119 117 118 115 115 111 105 95 87 82 82 82 81 83 84 83 79 74 67 60 59 57 52 52
90 79 128 193 166 186 146 106 91 92 104 89 104 148 162 157 143 129 126 122 135 140 146 146 140 137 132 135 123 113 108 100 93 86 81 73 65 62 66 72 79 74 66 60 58 60 58 55 52
86 118 212 205 173 168 151 135 137 97 90 80 80 107 132 142 145 145 148 151 153 155 164 164 158 156 157 151 115 87 82 74 80 75 77 69 70 58 61 54 61 56 50 50 56 59 57 50 42
122 169 206 221 170 146 144 146 133 125 141 167 154 151 152 152 155 157 163 163 165 166 164 168 165 160 158 140 128 107 83 75 82 89 101 88 74 56 48 45 39 36 43 40 42 44 42 45 47
123 199 182 192 147 133 156 147 127 154 186 173 161 156 158 160 166 166 169 169 164 162 170 170 162 156 158 141 137 130 113 100 94 94 107 102 88 72 62 56 42 37 37 42 40 44 40 46 47
133 200 188 174 142 140 121 132 142 167 154 146 148 149 159 165 169 173 170 166 161 165 168 163 158 154 149 136 141 124 118 121 112 85 106 117 115 104 85 63 53 43 44 51 50 49 42 42 42
180 178 166 151 142 145 123 112 109 175 148 145 152 160 169 170 168 160 159 163 164 167 166 158 157 152 140 134 131 127 123 119 96 88 101 109 113 112 104 80 57 48 57 66 68 62 53 46 50
142 82 347 297 215 187 116 51 200 171 153 153 164 172 176 177 169 169 170 168 165 165 158 155 156 145 137 136 136 126 122 109 93 88 91 96 105 109 108 98 75 60 69 73 67 58 59 56 53
69 78 287 278 215 173 127 221 247 169 154 163 169 171 174 183 176 176 171 165 162 155 151 156 149 139 135 131 128 119 109 103 94 92 91 92 98 104 101 94 81 77 75 75 78 67 67 54 46
38 178 237 271 226 165 145 220 239 185 165 177 181 180 179 180 175 170 169 165 161 159 154 148 142 145 142 132 121 111 105 98 95 90 89 87 93 100 104 99 91 85 79 72 83 70 79 75 52
214 218 228 229 226 159 183 234 231 200 181 187 189 186 186 184 191 173 163 164 162 160 153 146 144 146 137 124 106 87 76 68 67 84 97 97 92 96 99 99 88 84 82 70 78 80 62 75 61
189 200 230 239 220 164 207 237 235 213 198 196 197 192 192 192 193 173 164 157 155 155 153 152 149 153 142 136 135 125 124 98 63 84 98 96 95 97 102 100 90 85 91 101 103 94 76 49 50
190 208 251 277 237 176 205 245 242 214 207 202 197 195 193 191 181 177 169 163 161 163 162 163 161 162 161 157 156 150 148 147 147 122 85 96 105 110 115 113 113 102 96 84 86 98 93 55 49
217 199 218 235 304 333 92 310 286 256 227 214 201 194 190 187 185 182 176 172 166 167 170 169 170 166 162 150 129 104 76 60 56 58 84 127 124 117 122 127 126 121 118 128 117 119 118 119 13
247 231 211 214 124 276 173 271 282 260 241 221 214 201 195 192 186 182 179 177 178 177 170 166 167 164 162 153 149 150 152 165 195 190 187 187 139 126 127 135 135 136 129 138 151 123 121 123 115
225 237 217 202 165 303 323 178 284 275 247 242 223 212 202 193 185 184 182 184 181 172 165 163 163 165 165 161 161 159 159 173 167 150 151 166 166 148 142 148 144 145 148 156 143 123 113 123 140
135 40 33 45 72 294 247 184 277 249 233 237 227 212 200 188 184 185 182 173 168 164 163 161 165 170 172 169 169 168 167 165 156 159 166 182 194 211 176 158 155 158 166 172 172 159 143 142 136
69 75 31 3 6 261 246 171 252 265 246 225 220 208 193 182 174 176 172 170 171 171 175 172 172 180 182 179 182 182 177 173 176 178 179 177 181 203 209 170 166 173 185 181 170 158 168 163 157
175 141 154 196 226 278 326 229 260 293 295 289 126 161 158 164 169 175 182 181 180 179 179 179 182 189 189 188 193 189 182 179 186 184 180 184 190 199 193 179 176 177 175 174 168 164 181 163 174
152 178 175 150 215 272 282 287 313 350 12 29 69 92 128 158 163 174 181 184 183 181 185 188 186 192 195 194 191 189 186 184 188 185 180 182 187 189 181 174 173 179 176 170 165 172 187 175 185
162 154 97 114 166 267 290 270 260 284 311 344 53 148 166 155 162 164 166 177 183 189 190 188 187 192 195 193 190 188 191 188 185 174 177 179 185 182 173 174 173 177 176 165 153 161 186 162 190
130 119 121 133 157 162 250 272 240 215 207 219 223 199 179 166 169 175 179 180 175 173 175 184 189 191 194 196 195 185 190 185 177 177 183 181 181 179 179 181 177 177 177 175 162 171 167 168 188
173 175 148 157 221 174 182 263 294 209 179 157 209 213 168 155 160 167 163 154 154 167 180 190 196 199 202 197 188 187 185 177 177 182 186 177 177 183 182 179 177 182 180 177 174 184 174 173 181